Date String (YYYY-MM-DD hh:mm:ss) UTC,Instrument flags,absolute air pressure of the measurement (hPa),sample flow rate (lpm),inlet stack bypass flow (lpm),air temperature of the measurement (°C),ambient temperature measured by the external sensor (°C),aerosol sample conditioner tube jacket temperature (°C),OPC LED temperature (°C),internal box temperature (°C),relative humidity of the measurement (%),span deviation,mass concentration of particles derived from Lorenz-Mie calculation of OPC scattering (μg/m³),mass concentration of particles derived from Lorenz-Mie calculation of OPC scattering (μg/m³),mass concentration of particles derived from Lorenz-Mie calculation of OPC scattering (μg/m³)
DateTimeUTC,F1_M11,P_M11,Q1_M11,Q2_M11,T1_M11,T2_M11,T3_M11,T4_M11,T5_M11,U1_M11,ZSPAN_M11,X2_M11,X0_M11,X1_M11
2023-06-06 23:00:00,SystemResetWarning,0829.7,4.98,000.00,029.6,027.6,000.0,038.0,031.2,24.7,0000.0,0002.93,0007.17,0002.40
2023-06-06 23:01:00,SystemResetWarning,0829.7,4.99,000.00,029.6,025.4,000.0,038.0,031.1,24.4,0000.0,0002.95,0007.23,0002.39
2023-06-06 23:02:00,SystemResetWarning,0829.7,4.99,000.00,029.6,024.3,000.0,037.9,031.0,24.6,0000.0,0002.98,0007.31,0002.40
2023-06-06 23:03:00,SystemResetWarning,0829.7,5.02,000.00,029.5,024.4,000.0,037.9,030.8,24.3,0000.0,0002.97,0006.94,0002.41
2023-06-06 23:04:00,SystemResetWarning,0829.7,5.00,000.00,029.4,024.8,000.0,037.9,030.6,25.9,0000.0,0003.02,0006.55,0002.45
2023-06-06 23:05:00,SystemResetWarning,0829.7,5.00,000.00,029.3,025.3,000.0,037.9,030.6,25.7,0000.0,0003.10,0006.31,0002.54
2023-06-06 23:06:00,SystemResetWarning,0829.7,5.01,000.00,029.3,025.8,000.0,037.9,030.6,26.3,0000.0,0003.14,0006.64,0002.60
2023-06-06 23:07:00,SystemResetWarning,0829.6,5.00,000.00,029.3,026.3,000.0,037.9,030.6,26.4,0000.0,0003.24,0007.04,0002.72
2023-06-06 23:08:00,SystemResetWarning,0829.7,4.99,000.00,029.3,026.6,000.0,037.8,030.7,26.6,0000.0,0003.33,0007.31,0002.83
2023-06-06 23:09:00,SystemResetWarning,0829.6,5.00,000.00,029.3,027.0,000.0,037.8,030.7,26.6,0000.0,0003.46,0007.90,0002.98
2023-06-06 23:10:00,SystemResetWarning,0829.6,5.00,000.00,029.3,027.2,000.0,037.8,030.8,26.7,0000.0,0003.53,0007.51,0003.08
2023-06-06 23:11:00,SystemResetWarning,0829.6,5.00,000.00,029.3,027.4,000.0,037.8,030.8,29.2,0000.0,0003.66,0007.68,0003.19
2023-06-06 23:12:00,SystemResetWarning,0829.6,5.00,000.00,029.4,027.6,000.0,037.9,030.9,32.6,0000.0,0003.97,0008.35,0003.48
2023-06-06 23:13:00,SystemResetWarning,0829.6,5.00,000.00,029.4,027.8,000.0,037.9,030.9,33.1,0000.0,0004.44,0009.17,0003.92
2023-06-06 23:14:00,SystemResetWarning,0829.6,5.00,000.00,029.4,027.9,000.0,037.9,031.0,33.5,0000.0,0004.98,0009.78,0004.43
2023-06-06 23:15:00,SystemResetWarning,0829.6,5.01,000.00,029.5,028.1,000.0,037.9,031.0,32.9,0000.9,0005.43,0010.22,0004.86
2023-06-06 23:16:00,SystemResetWarning,0829.6,4.98,000.00,029.5,028.2,000.0,037.9,031.1,32.0,0001.2,0005.80,0010.58,0005.20
2023-06-06 23:17:00,SystemResetWarning,0829.6,5.00,000.00,029.5,028.2,000.0,037.9,031.1,32.2,0001.1,0006.11,0010.94,0005.50
2023-06-06 23:18:00,SystemResetWarning,0829.7,5.01,000.00,029.5,028.3,000.0,038.0,031.1,32.0,0001.5,0006.40,0011.18,0005.80
2023-06-06 23:19:00,SystemResetWarning,0829.7,4.99,000.00,029.6,028.3,000.0,038.0,031.2,32.4,0001.7,0006.62,0011.46,0006.01
2023-06-06 23:20:00,SystemResetWarning,0829.7,4.99,000.00,029.6,027.1,000.0,038.0,031.2,33.1,0001.6,0006.84,0011.41,0006.25
2023-06-06 23:21:00,SystemResetWarning,0829.6,5.00,000.00,029.6,025.5,000.0,037.9,031.2,33.8,0001.6,0007.14,0011.51,0006.55
2023-06-06 23:22:00,SystemResetWarning,0829.6,5.01,000.00,029.6,025.3,000.0,037.9,031.1,34.3,0001.3,0007.45,0012.23,0006.84
2023-06-06 23:23:00,SystemResetWarning,0829.6,5.00,000.00,029.5,025.6,000.0,037.9,030.8,34.7,0001.4,0007.62,0012.26,0007.00
2023-06-06 23:24:00,SystemResetWarning,0829.6,5.00,000.00,029.4,026.0,000.0,037.9,030.8,34.4,0001.5,0007.60,0011.90,0007.01
2023-06-06 23:25:00,SystemResetWarning,0829.7,5.00,000.00,029.4,026.4,000.0,037.9,030.8,34.6,0001.3,0007.57,0011.84,0007.00
2023-06-06 23:26:00,SystemResetWarning,0829.6,5.00,000.00,029.5,026.7,000.0,037.9,030.8,34.8,0000.6,0007.69,0012.68,0007.09
2023-06-06 23:27:00,SystemResetWarning,0829.6,4.98,000.00,029.5,027.0,000.0,037.9,030.9,35.2,0000.6,0007.81,0013.05,0007.20
2023-06-06 23:28:00,SystemResetWarning,0829.6,5.03,000.00,029.7,027.3,000.0,038.0,031.0,35.2,0000.6,0007.95,0014.18,0007.33
2023-06-06 23:29:00,SystemResetWarning,0829.7,4.97,000.00,030.0,027.5,000.0,038.0,031.1,34.6,0000.6,0008.03,0014.90,0007.43
2023-06-06 23:30:00,SystemResetWarning,0829.7,5.02,000.00,030.2,027.6,000.0,038.0,031.2,34.3,0000.9,0008.19,0015.30,0007.58
2023-06-06 23:31:00,SystemResetWarning,0829.7,5.01,000.00,030.3,027.8,000.0,038.1,031.2,33.8,0001.2,0008.38,0015.91,0007.75
2023-06-06 23:32:00,SystemResetWarning,0829.7,4.99,000.00,030.4,027.9,000.0,038.1,031.2,33.4,0001.5,0008.52,0017.17,0007.84
2023-06-06 23:33:00,SystemResetWarning,0829.7,4.99,000.00,030.4,028.0,000.0,038.2,031.3,33.2,0001.7,0008.63,0017.70,0007.93
2023-06-06 23:34:00,SystemResetWarning,0829.7,5.01,000.00,030.4,028.1,000.0,038.3,031.2,33.4,0001.8,0008.70,0019.16,0007.98
2023-06-06 23:35:00,SystemResetWarning,0829.7,5.00,000.00,030.5,028.1,000.0,038.4,031.3,33.8,0001.8,0008.68,0019.29,0007.94
2023-06-06 23:36:00,SystemResetWarning,0829.7,5.01,000.00,030.5,028.2,000.0,038.4,031.3,33.5,0001.9,0008.64,0019.80,0007.87
2023-06-06 23:37:00,SystemResetWarning,0829.7,4.99,000.00,030.5,028.0,000.0,038.5,031.4,33.5,0002.4,0008.49,0019.33,0007.74
2023-06-06 23:38:00,SystemResetWarning,0829.7,4.99,000.00,030.6,026.2,000.0,038.5,031.4,32.5,0002.7,0008.35,0019.20,0007.61
2023-06-06 23:39:00,SystemResetWarning,0829.7,5.00,000.00,030.6,025.3,000.0,038.5,031.4,31.7,0002.8,0008.34,0018.23,0007.58
2023-06-06 23:40:00,SystemResetWarning,0829.7,5.00,000.00,030.5,025.3,000.0,038.5,031.0,31.4,0002.8,0008.43,0018.39,0007.65
2023-06-06 23:41:00,SystemResetWarning,0829.7,5.00,000.00,030.4,025.7,000.0,038.5,030.9,31.8,0002.7,0008.48,0018.22,0007.70
2023-06-06 23:42:00,SystemResetWarning,0829.7,5.00,000.00,030.3,026.0,000.0,038.5,030.9,31.9,0002.5,0008.51,0017.87,0007.74
2023-06-06 23:43:00,SystemResetWarning,0829.7,5.00,000.00,030.2,026.4,000.0,038.5,030.9,32.4,0002.3,0008.47,0016.64,0007.74
2023-06-06 23:44:00,SystemResetWarning,0829.7,5.00,000.00,030.2,026.8,000.0,038.5,030.9,32.7,0002.2,0008.38,0015.93,0007.68
2023-06-06 23:45:00,SystemResetWarning,0829.7,4.99,000.00,030.2,027.1,000.0,038.5,031.0,32.3,0002.0,0008.34,0014.41,0007.65
2023-06-06 23:46:00,SystemResetWarning,0829.7,5.00,000.00,030.2,027.3,000.0,038.5,031.0,32.6,0002.1,0008.30,0014.71,0007.62
2023-06-06 23:47:00,SystemResetWarning,0829.7,5.00,000.00,030.2,027.5,000.0,038.5,031.1,33.0,0002.5,0008.25,0014.38,0007.60
2023-06-06 23:48:00,SystemResetWarning,0829.7,4.99,000.00,030.2,027.7,000.0,038.5,031.1,33.3,0002.6,0008.22,0014.19,0007.59
2023-06-06 23:49:00,SystemResetWarning,0829.7,5.00,000.00,030.2,027.8,000.0,038.5,031.1,32.8,0002.5,0008.21,0013.79,0007.61
2023-06-06 23:50:00,SystemResetWarning,0829.7,5.00,000.00,030.2,027.9,000.0,038.6,031.2,33.3,0002.5,0008.13,0013.65,0007.56
2023-06-06 23:51:00,SystemResetWarning,0829.7,5.00,000.00,030.2,028.0,000.0,038.6,031.2,33.3,0002.4,0007.95,0012.88,0007.39
2023-06-06 23:52:00,SystemResetWarning,0829.7,5.00,000.00,030.2,028.1,000.0,038.6,031.2,33.3,0002.2,0007.77,0012.48,0007.23
2023-06-06 23:53:00,SystemResetWarning,0829.8,5.00,000.00,030.2,028.2,000.0,038.6,031.2,33.5,0002.1,0007.57,0012.19,0007.03
2023-06-06 23:54:00,SystemResetWarning,0829.7,5.01,000.00,030.2,028.2,000.0,038.6,031.3,31.9,0002.2,0007.38,0011.92,0006.83
2023-06-06 23:55:00,SystemResetWarning,0829.7,4.99,000.00,030.2,027.4,000.0,038.6,031.4,30.1,0002.4,0007.12,0011.62,0006.58
2023-06-06 23:56:00,SystemResetWarning,0829.7,4.99,000.00,030.2,025.7,000.0,038.5,031.4,30.0,0002.7,0006.79,0011.27,0006.27
2023-06-06 23:57:00,SystemResetWarning,0829.7,5.01,000.00,030.2,025.3,000.0,038.5,031.3,30.0,0002.7,0006.45,0010.66,0005.95
2023-06-06 23:58:00,SystemResetWarning,0829.7,5.00,000.00,030.1,025.5,000.0,038.5,031.0,30.5,0002.4,0006.16,0010.63,0005.64
2023-06-06 23:59:00,SystemResetWarning,0829.7,5.00,000.00,030.0,025.9,000.0,038.5,030.9,29.0,0001.0,0005.82,0010.78,0005.31
